STARLINK-1632 (46170 NORAD) Tracking and Keplerian Element Data

This shows tracking and keplerian element data for the satellite.

Feedback or suggestion? Click here.




ElementValue
Catalog46170
NameSTARLINK-1632
Epoch Orbit178
Epoch Day268.91668981
Epoch Year2020
RAAN257.2385
Inclination53.0007
Eccentricity0.000119
Argument of Perigee49.9229
Mean Anonmoly91.0528
Mean Motion15.62758328
Decay Rate-0.00025032
L11 46170U 20057BF 20268.91668981 -.00025032 00000-0 -26832-3 0 9996
L22 46170 53.0007 257.2385 0001190 49.9229 91.0528 15.62758328 1781

Live tracking and technical data element details for STARLINK-1632 (NORAD 46170). STARLINK-1632 can be tracked NOW for your location showing map with azimuth and elevation plus other details from your city location.

Track the satellite on the map from your city or location and see movement details for azimuth, elevation, latitude, longitude, range, height, and movement on the map or in text.







IsCatalogInMostPopularTable: catalog: 46170, numindb: 3
Update: records affected: 1



GetName: 46170 STARLINK-1632

Hit Count: updated at: Sat, 26 Sep 2020 15:38:54 GMT